Погода в Синицыне

Россия / Республика Крым     45°14′16″N   35°15′02″E
темп.,
°C
ветер,
м/с
пор.,
м/с
влажн.,
%
обл.,
%
осадки,
мм/ч
давл.,
гПа
погр.,
м
18 апреля, вс
вс1800:00+6юв4681100 0.0 1019113
03:00+7вюв2375100 0.1 101875
06:00+7св458493 1.4 1018179
09:00+9св458247 1.4 1018369
12:00+11всв2385100 0.4 1017384
15:00+11всв228479 0.4 1017354
18:00+10св4489100 0.0 1017243
21:00+10св4594100 0.1 1017139
19 апреля, пн
пн1900:00+10в2393100 0.1 101668
03:00+10вюв2293100 0.2 101630
06:00+10всв1194100 0.0 101627
09:00+11св3391100 0.1 1016253
12:00+11св4489100 0.0 1014376
15:00+11в3492100 1.4 1014239
18:00+11вюв4794100 1.7 1012244
21:00+11вюв4798100 1.9 1011250
20 апреля, вт
вт2000:00+11юв4798100 1.8 1009237
03:00+11вюв4799100 3.9 1004221
06:00+11юв3499100 6.9 1002102
09:00+12ююв71287100 9.6 1001394
12:00+15ююз68722 0.3 1001598
15:00+14ююз796843 0.4 1001748
18:00+12юз81374100 0.2 10011169
21:00+10зюз132179100 0.3 10061365
21 апреля, ср
ср2100:00+11зюз11177295 0.1 10101264
03:00+10зюз7147372 0.1 1013748
06:00+9юз511775 0.0 1015307
09:00+12з686123 0.0 1017952
12:00+15з575114 0.0 10181358
15:00+15з4551100 0.0 10181386
18:00+14з346720 0.3 1019329
21:00+11юв337844 0.6 102149
22 апреля, чт
чт2200:00+9з228366 0.0 102116
03:00+8зсз1188100 0.0 102221
06:00+9юв1187100 0.0 102211
09:00+11всв2277100 0.1 1023227
12:00+13всв337098 0.3 1024463
15:00+14вюв236264 1.7 1023947
18:00+14св02684 0.9 1024317
21:00+10з11810 0.9 102510